This demonstration page uses our WeatherBlox Daily Observations layout. Learn more.

Left ArrowRight Arrow

44.8408, -93.29828

Hourly Observations for February 16, 2015

Temp ( °F °C ) Dew Point ( °F °C ) Humidity (%) Winds ( mph kmh ) Pressure ( in mb ) Visibility ( mi km ) Precip ( " mm )
12:53 am 00:53 Cloudy 9 -12.8 -1 -18.3 64 64 SE 7 11 30.33 1027 10 16 0.00 0.00
1:53 am 01:53 Cloudy 10 -12.2 -1 -18.3 61 61 SSE 10 17 30.31 1026 10 16 0.00 0.00
2:53 am 02:53 Cloudy 10 -12.2 -1 -18.3 61 61 SSE 8 13 30.29 1026 10 16 0.00 0.00
3:53 am 03:53 Cloudy 10 -12.2 0 -17.8 63 63 S 8 13 30.26 1025 10 16 0.00 0.00
4:53 am 04:53 Cloudy 10 -12.2 1 -17.2 67 67 S 6 9 30.24 1024 10 16 0.00 0.00
5:53 am 05:53 Cloudy 10 -12.2 2 -16.7 69 69 SSE 9 15 30.22 1024 8 13 0.00 0.00
6:53 am 06:53 Cloudy with Light Snow 10 -12.2 3 -16.1 73 73 S 7 11 30.21 1023 6 10 0.00 0.03
7:53 am 07:53 Cloudy with Light Snow 10 -12.2 4 -15.6 76 76 S 8 13 30.20 1023 8 13 0.00 0.03
8:53 am 08:53 Cloudy with Light Snow 11 -11.7 5 -15 77 77 S 7 11 30.19 1022 4 6 0.00 0.03
9:16 am 09:16 Cloudy with Light Snow 10 -12 7 -14 85 85 S 7 11 30.21 1023 4 6 0.00 0.00
9:25 am 09:25 Cloudy with Light Snow 11 -11.7 6 -14.4 81 81 S 7 11 30.21 1023 4 6 0.00 0.03
9:35 am 09:35 Cloudy with Light Snow 12 -11.1 6 -14.4 77 77 SSE 8 13 30.21 1023 4 6 0.00 0.03
9:53 am 09:53 Cloudy with Light Snow 12 -11.1 7 -13.9 80 80 S 6 9 30.17 1022 5 8 0.00 0.03
10:53 am 10:53 Cloudy with Light Snow 14 -10 8 -13.3 77 77 SSW 5 7 30.15 1021 6 10 0.00 0.03
11:17 am 11:17 Cloudy with Light Snow 15 -9.4 8 -13.3 74 74 SW 5 7 30.15 1021 7 11 0.01 0.25
11:24 am 11:24 Cloudy with Light Snow 15 -9.4 9 -12.8 77 77 SSW 6 9 30.15 1021 6 10 0.01 0.25
11:35 am 11:35 Cloudy with Light Snow 15 -9.4 9 -12.8 77 77 S 5 7 30.15 1021 5 8 0.01 0.25
11:53 am 11:53 Cloudy with Light Snow 16 -8.9 10 -12.2 77 77 SSW 5 7 30.12 1020 5 8 0.01 0.25
12:23 pm 12:23 Cloudy with Light Snow 17 -8.3 10 -12.2 74 74 SSW 6 9 30.12 1020 7 11 0.00 0.03
12:53 pm 12:53 Cloudy with Light Snow 18 -7.8 11 -11.7 74 74 SW 7 11 30.09 1019 5 8 0.00 0.03
1:24 pm 13:24 Cloudy with Light Snow 19 -7 12 -11 73 73 WSW 6 9 30.09 1019 3 5 0.00 0.00
1:53 pm 13:53 Cloudy with Light Snow 19 -7.2 12 -11.1 74 74 W 5 7 30.06 1018 7 11 0.00 0.03
2:53 pm 14:53 Cloudy with Light Snow 20 -6.7 12 -11.1 71 71 WNW 9 15 30.05 1018 8 13 0.00 0.03
3:10 pm 15:10 Cloudy with Light Snow 20 -6.7 12 -11.1 71 71 NW 12 19 30.06 1018 5 8 0.00 0.03
3:53 pm 15:53 Cloudy with Light Snow 19 -7.2 12 -11.1 74 74 NW 13 20 30.05 1018 7 11 0.00 0.03
4:53 pm 16:53 Cloudy 18 -7.8 7 -13.9 62 62 NW 15 24 30.06 1018 9 14 0.00 0.03
5:53 pm 17:53 Mostly Cloudy 16 -8.9 6 -14.4 65 65 WNW 13 20 30.07 1018 10 16 0.00 0.00
6:53 pm 18:53 Mostly Cloudy 14 -10 4 -15.6 64 64 WNW 8 13 30.08 1019 10 16 0.00 0.00
7:53 pm 19:53 Cloudy 15 -9.4 4 -15.6 61 61 W 8 13 30.08 1019 10 16 0.00 0.00
8:53 pm 20:53 Cloudy 15 -9.4 4 -15.6 61 61 WNW 14 22 30.08 1019 10 16 0.00 0.00
9:53 pm 21:53 Mostly Cloudy 13 -10.6 2 -16.7 61 61 NW 18 30 30.09 1019 10 16 0.00 0.00
10:53 pm 22:53 Mostly Cloudy 11 -11.7 1 -17.2 64 64 NW 17 28 30.09 1019 10 16 0.00 0.00
11:53 pm 23:53 Cloudy 9 -12.8 -1 -18.3 64 64 NW 15 24 30.09 1019 10 16 0.00 0.00

Powered by Vaisala Xweather